Terminal Aerodrome Forecast
Issued by NWS

Current Version | Previous Version | Text Only | Print | Product List | Glossary On
Versions: 1 2 3 4 5 6 7 8 9 10 11 12 13 14 15 16 17 18 19 20 21 22 23 24 25 26 27 28 29 30 31 32 33 34 35 36 37 38 39 40 41 42 43 44 45 46 47 48 49 50
000
FTAK31 PANC 261310 AAA
TAFASN
TAF AMD
PASN 261310Z 2613/2712 06028G38KT 5SM -SHSN BKN025 BKN030
     FM261600 04025G38KT 2SM -SN BLSN SCT005 OVC009
     FM270000 03025G40KT 1SM -SN BLSN BKN004 OVC008=

USA.gov is the U.S. government's official web portal to all federal, state and local government web resources and services.